Theta_e
317 317 317 318 318 318 317 318 321 323 333 335 336 336 336 335 333 334 335 334 336 336
314 315 317 318 319 320 319 324 326 325 326 331 336 337 334 334 332 334 335 335 336 336
314 316 317 316 316 317 318 320 322 324 325 325 328 328 327 330 335 334 335 336 335 335
313 314 316 317 318 319 320 323 325 326 328 328 328 328 328 327 330 333 333 334 335 335
313 314 315 316 318 320 319 319 322 320 320 321 323 325 327 328 330 329 329 334 338 338
307 307 308 310 313 316 315 313 313 314 314 316 318 319 320 323 324 327 329 331 333 338
308 309 309 311 312 310 311 310 310 311 313 316 316 316 317 319 322 324 327 330 332 335
308 308 308 308 308 309 309 309 309 310 311 313 314 315 314 318 318 317 318 322 327 331
305 307 308 308 307 307 308 307 308 308 309 308 313 307 306 309 310 313 316 318 323 326
306 307 306 306 306 305 304 304 304 304 305 305 306 303 302 305 309 312 314 318 322 325
306 306 306 305 304 303 302 302 301 302 303 303 306 302 300 301 307 310 313 318 322 324
305 304 304 303 302 301 300 300 300 302 302 301 303 301 299 301 306 309 314 320 324 324
305 305 304 303 301 300 300 301 302 303 302 302 302 299 299 301 308 311 315 317 320 311
305 304 303 301 300 300 300 301 301 302 303 303 303 305 300 300 306 309 313 317 319 321
Wind_Speed
5 4 4 5 3 3 3 2 3 4 4 5 5 5 5 3 4 6 6 7 9 9
6 6 6 5 3 3 3 3 3 3 4 4 4 5 6 5 7 6 5 8 8 7
7 6 6 4 5 5 3 2 2 2 2 3 4 4 4 4 5 6 7 8 8 7
7 7 5 6 6 6 4 4 4 3 2 1 3 4 3 5 6 6 6 7 8 11
7 6 7 6 5 5 6 4 5 4 2 1 1 3 5 5 6 6 6 9 7 8
7 7 7 7 6 7 7 7 6 6 3 1 2 4 4 5 6 5 6 6 8 10
9 9 8 8 8 8 7 7 6 5 5 5 5 4 5 5 5 6 6 6 7 10
7 8 7 7 7 6 5 5 5 5 5 5 4 4 5 4 5 5 6 7 9 9
2 3 6 7 7 6 6 5 4 6 5 5 4 8 9 6 5 6 7 9 10 9
6 6 6 5 6 6 7 5 6 6 5 7 7 10 11 10 6 5 7 10 10 10
7 7 7 7 7 6 4 6 6 6 7 6 7 11 11 10 6 6 9 11 11 11
7 7 7 8 8 6 5 5 6 6 7 7 10 10 12 11 8 9 11 10 9 10
8 11 11 9 8 6 5 8 6 8 7 9 9 10 12 10 5 9 9 8 7 12
10 11 9 8 5 6 7 7 8 10 9 7 7 7 11 13 9 9 10 9 6 7
Wind_Direction
190 198 203 196 200 221 178 236 300 297 287 259 237 231 218 239 261 271 246 226 215 220
195 200 213 221 180 196 188 190 207 236 248 253 234 221 212 222 225 233 238 245 230 228
195 213 205 173 206 208 221 192 203 254 268 290 285 279 260 254 238 220 224 233 238 230
200 207 201 200 207 196 177 171 163 162 153 240 291 299 266 256 259 243 242 225 222 247
202 186 179 197 200 179 159 149 144 146 135 174 253 279 285 281 285 283 298 292 271 273
202 186 205 203 190 170 165 168 178 169 175 227 270 285 286 275 289 294 267 275 283 280
209 200 197 188 181 184 183 183 186 190 195 207 219 252 271 279 284 284 282 282 277 275
212 187 176 187 192 186 193 206 204 200 214 221 210 217 241 263 269 276 279 271 275 272
236 253 195 186 184 183 202 215 219 238 244 246 232 259 264 256 267 273 271 283 282 277
193 198 217 216 192 203 225 230 246 253 229 236 249 248 238 247 250 260 274 274 274 278
210 212 212 212 214 225 216 236 243 256 258 257 252 266 264 232 249 250 263 265 264 261
230 221 217 210 210 213 212 230 240 246 255 248 268 254 263 282 280 270 260 262 257 254
239 233 226 217 215 211 211 236 235 247 241 236 250 246 253 256 262 273 272 267 257 258
248 238 230 215 200 197 221 246 252 254 252 246 230 252 256 263 263 262 269 264 260 265